When you browse on this site, cookies collect data to enhance your experience and personalize the content and advertising you see.
Visit our Privacy Policy to learn more. By continuing to use the site, you agree to this use of cookies and data.
  • Em Portugal
  • Lista de países
  • Para 7 dias
  • Temperatura da água
  • Mapas de satélite
  • Mapa do tempo
  • Widgets de tempo
  • user-avatar
    Iniciar Sessão

    Previsão horária em Pleven

    Hoje, 22 Janeiro, Terça-feira

    Tempo Temperatura Precipitação Vento Pressão Humidade
    00:00 +1°C° 0 mm 2 m/s 748 mmHg 87%
    01:00 -1°C° 0 mm 2 m/s 748 mmHg 87%
    02:00 -1°C° 0 mm 2 m/s 748 mmHg 87%
    03:00 -1°C° 0 mm 2 m/s 748 mmHg 87%
    04:00 -1°C° 0 mm 2 m/s 748 mmHg 87%
    05:00 -1°C° 0 mm 2 m/s 747 mmHg 87%
    06:00 -1°C° 0 mm 2 m/s 747 mmHg 88%
    07:00 -1°C° 0 mm 2 m/s 747 mmHg 88%
    08:00 -1°C° 0 mm 2 m/s 747 mmHg 88%
    09:00 +1°C° 0 mm 2 m/s 746 mmHg 85%
    10:00 +2°C° 0 mm 2 m/s 746 mmHg 82%
    11:00 +2°C° 0 mm 2 m/s 746 mmHg 79%
    12:00 +3°C° 0 mm 2 m/s 745 mmHg 78%
    13:00 +4°C° 0 mm 2 m/s 744 mmHg 76%
    14:00 +5°C° 0 mm 2 m/s 744 mmHg 75%
    15:00 +4°C° 0.2 mm 2 m/s 743 mmHg 78%
    16:00 +4°C° 0.2 mm 2 m/s 742 mmHg 81%
    17:00 +5°C° 0.2 mm 1 m/s 742 mmHg 85%
    18:00 +4°C° 0 mm 1 m/s 741 mmHg 86%
    19:00 +4°C° 0 mm 1 m/s 741 mmHg 88%
    20:00 +3°C° 0 mm 1 m/s 740 mmHg 90%
    21:00 +3°C° 0 mm 1 m/s 740 mmHg 91%
    22:00 +3°C° 0 mm 1 m/s 739 mmHg 91%
    23:00 +3°C° 0 mm 1 m/s 739 mmHg 92%

    Amanhã, 23 Janeiro, Quarta-feira

    Tempo Temperatura Precipitação Vento Pressão Humidade
    00:00 +3°C° 0 mm 1 m/s 738 mmHg 92%
    01:00 +3°C° 0 mm 1 m/s 738 mmHg 93%
    02:00 +3°C° 0 mm 1 m/s 737 mmHg 93%
    03:00 +3°C° 0 mm 1 m/s 736 mmHg 93%
    04:00 +3°C° 0 mm 1 m/s 736 mmHg 92%
    05:00 +3°C° 0 mm 1 m/s 735 mmHg 92%
    06:00 +3°C° 0 mm 1 m/s 736 mmHg 91%
    07:00 +3°C° 0 mm 1 m/s 736 mmHg 91%
    08:00 +3°C° 0 mm 1 m/s 736 mmHg 90%
    09:00 +4°C° 0 mm 1 m/s 736 mmHg 87%
    10:00 +6°C° 0 mm 1 m/s 736 mmHg 83%
    11:00 +6°C° 0 mm 0 m/s 736 mmHg 79%
    12:00 +8°C° 0 mm 1 m/s 736 mmHg 77%
    13:00 +9°C° 0 mm 1 m/s 736 mmHg 74%
    14:00 +10°C° 0 mm 1 m/s 735 mmHg 71%
    15:00 +9°C° 0 mm 1 m/s 735 mmHg 76%
    16:00 +7°C° 0 mm 2 m/s 735 mmHg 80%
    17:00 +6°C° 0 mm 2 m/s 735 mmHg 84%
    18:00 +6°C° 0 mm 2 m/s 735 mmHg 86%
    19:00 +6°C° 0 mm 1 m/s 735 mmHg 88%
    20:00 +5°C° 0 mm 1 m/s 735 mmHg 89%
    21:00 +5°C° 0.1 mm 1 m/s 735 mmHg 91%
    22:00 +5°C° 0.1 mm 1 m/s 735 mmHg 92%
    23:00 +4°C° 0.1 mm 1 m/s 735 mmHg 94%

    Depois de amanhã, 24 Janeiro, Quinta-feira

    Tempo Temperatura Precipitação Vento Pressão Humidade
    00:00 +4°C° 0.9 mm 1 m/s 734 mmHg 95%
    01:00 +4°C° 0.9 mm 1 m/s 734 mmHg 96%
    02:00 +4°C° 0.9 mm 1 m/s 734 mmHg 97%
    03:00 +4°C° 1 mm 1 m/s 733 mmHg 96%
    04:00 +3°C° 1 mm 1 m/s 733 mmHg 96%
    05:00 +3°C° 1 mm 1 m/s 732 mmHg 96%
    06:00 +2°C° 0.4 mm 2 m/s 732 mmHg 95%
    07:00 +2°C° 0.4 mm 2 m/s 732 mmHg 95%
    08:00 +2°C° 0.4 mm 2 m/s 732 mmHg 94%
    09:00 +2°C° 0.3 mm 2 m/s 732 mmHg 93%
    10:00 +2°C° 0.3 mm 2 m/s 732 mmHg 91%
    11:00 +3°C° 0.3 mm 2 m/s 733 mmHg 90%
    12:00 +3°C° 0.4 mm 2 m/s 732 mmHg 91%
    13:00 +3°C° 0.4 mm 2 m/s 732 mmHg 92%
    14:00 +3°C° 0.4 mm 2 m/s 732 mmHg 93%
    15:00 +4°C° 0.3 mm 1 m/s 732 mmHg 94%
    16:00 +3°C° 0.3 mm 1 m/s 732 mmHg 96%
    17:00 +3°C° 0.3 mm 1 m/s 732 mmHg 97%
    18:00 +3°C° 0.4 mm 1 m/s 732 mmHg 97%
    19:00 +3°C° 0.4 mm 1 m/s 733 mmHg 97%
    20:00 +3°C° 0.4 mm 1 m/s 733 mmHg 97%
    21:00 +3°C° 0.6 mm 1 m/s 733 mmHg 97%
    22:00 +3°C° 0.6 mm 1 m/s 734 mmHg 97%
    23:00 +2°C° 0.6 mm 1 m/s 734 mmHg 97%

    25 Janeiro, Sexta-feira

    Tempo Temperatura Precipitação Vento Pressão Humidade
    00:00 +2°C° 0.2 mm 1 m/s 734 mmHg 98%
    01:00 +2°C° 0.2 mm 1 m/s 734 mmHg 98%
    02:00 +2°C° 0.2 mm 1 m/s 735 mmHg 98%
    03:00 +2°C° 0.1 mm 1 m/s 735 mmHg 98%
    04:00 +2°C° 0.1 mm 1 m/s 735 mmHg 97%
    05:00 +2°C° 0.1 mm 1 m/s 735 mmHg 97%
    06:00 +2°C° 0.3 mm 1 m/s 735 mmHg 97%
    07:00 +2°C° 0.3 mm 1 m/s 736 mmHg 97%
    08:00 +1°C° 0.3 mm 1 m/s 736 mmHg 97%
    09:00 +1°C° 0 mm 2 m/s 736 mmHg 97%
    10:00 +1°C° 0 mm 2 m/s 736 mmHg 98%
    11:00 +1°C° 0 mm 2 m/s 736 mmHg 98%
    12:00 +1°C° 0.8 mm 2 m/s 736 mmHg 98%
    13:00 +1°C° 0.8 mm 2 m/s 735 mmHg 98%
    14:00 +1°C° 0.8 mm 2 m/s 735 mmHg 98%
    15:00 +1°C° 1.4 mm 2 m/s 735 mmHg 98%
    16:00 +1°C° 1.4 mm 2 m/s 735 mmHg 98%
    17:00 -1°C° 1.4 mm 2 m/s 735 mmHg 98%
    18:00 -1°C° 0.4 mm 2 m/s 735 mmHg 98%
    19:00 -1°C° 0.4 mm 2 m/s 734 mmHg 97%
    20:00 -1°C° 0.4 mm 2 m/s 734 mmHg 97%
    21:00 -1°C° 0.4 mm 2 m/s 734 mmHg 97%
    22:00 -2°C° 0.4 mm 2 m/s 734 mmHg 97%
    23:00 -2°C° 0.4 mm 2 m/s 734 mmHg 97%

    26 Janeiro, Sábado

    Tempo Temperatura Precipitação Vento Pressão Humidade
    00:00 -2°C° 1.1 mm 2 m/s 734 mmHg 97%
    01:00 -2°C° 1.1 mm 2 m/s 734 mmHg 98%
    02:00 -2°C° 1.1 mm 2 m/s 734 mmHg 98%
    03:00 -2°C° 1.5 mm 2 m/s 734 mmHg 98%
    04:00 -2°C° 1.5 mm 2 m/s 734 mmHg 98%
    05:00 -2°C° 1.5 mm 2 m/s 734 mmHg 98%
    06:00 -2°C° 0.3 mm 2 m/s 735 mmHg 98%
    07:00 -2°C° 0.3 mm 2 m/s 735 mmHg 98%
    08:00 -2°C° 0.3 mm 2 m/s 736 mmHg 98%
    09:00 -1°C° 0.1 mm 2 m/s 736 mmHg 98%
    10:00 -1°C° 0.1 mm 2 m/s 736 mmHg 99%
    11:00 -1°C° 0.1 mm 2 m/s 737 mmHg 99%
    12:00 -1°C° 0.1 mm 2 m/s 737 mmHg 99%
    13:00 -1°C° 0.1 mm 2 m/s 737 mmHg 99%
    14:00 -1°C° 0.1 mm 3 m/s 737 mmHg 98%
    15:00 -1°C° 0.1 mm 2 m/s 737 mmHg 98%
    16:00 -1°C° 0.1 mm 2 m/s 737 mmHg 97%
    17:00 -2°C° 0.1 mm 2 m/s 737 mmHg 97%
    18:00 -2°C° 0.1 mm 2 m/s 737 mmHg 97%
    19:00 -2°C° 0.1 mm 2 m/s 737 mmHg 97%
    20:00 -1°C° 0.1 mm 1 m/s 738 mmHg 97%
    21:00 -1°C° 0 mm 1 m/s 738 mmHg 97%
    22:00 -1°C° 0 mm 1 m/s 738 mmHg 96%
    23:00 -1°C° 0 mm 1 m/s 738 mmHg 96%

    27 Janeiro, Domingo

    Tempo Temperatura Precipitação Vento Pressão Humidade
    00:00 -1°C° 0 mm 1 m/s 738 mmHg 96%
    01:00 -2°C° 0 mm 1 m/s 738 mmHg 95%
    02:00 -2°C° 0 mm 1 m/s 737 mmHg 95%
    03:00 -3°C° 0 mm 0 m/s 737 mmHg 95%
    04:00 -3°C° 0 mm 0 m/s 737 mmHg 95%
    05:00 -3°C° 0 mm 0 m/s 737 mmHg 95%
    06:00 -3°C° 0 mm 0 m/s 737 mmHg 94%
    07:00 -4°C° 0 mm 0 m/s 737 mmHg 94%
    08:00 -4°C° 0 mm 0 m/s 737 mmHg 93%
    09:00 -3°C° 0 mm 0 m/s 737 mmHg 94%
    10:00 -1°C° 0 mm 1 m/s 737 mmHg 95%
    11:00 +1°C° 0 mm 1 m/s 738 mmHg 96%
    12:00 +1°C° 0 mm 1 m/s 737 mmHg 97%
    13:00 +1°C° 0 mm 1 m/s 737 mmHg 98%
    14:00 -1°C° 0 mm 2 m/s 737 mmHg 100%
    15:00 +2°C° 0 mm 1 m/s 737 mmHg 99%
    16:00 +2°C° 0 mm 1 m/s 737 mmHg 99%
    17:00 +2°C° 0 mm 1 m/s 737 mmHg 99%
    18:00 +1°C° 0 mm 1 m/s 737 mmHg 98%
    19:00 +1°C° 0 mm 1 m/s 738 mmHg 97%
    20:00 +1°C° 0 mm 1 m/s 738 mmHg 97%
    21:00 +1°C° 0 mm 1 m/s 738 mmHg 96%
    22:00 +1°C° 0 mm 1 m/s 739 mmHg 96%
    23:00 +1°C° 0 mm 1 m/s 739 mmHg 96%
    Mostrar mais